Regional Weather Roundup
Issued by NWS Charleston, SC

Current Version | Previous Version | Graphics & Text | Print | Product List | Glossary On
Versions: 1 2 3 4 5 6 7 8 9 10 11 12 13 14 15 16 17 18 19 20 21 22 23 24 25 26 27 28 29 30 31 32 33 34 35 36 37 38 39 40 41 42 43 44 45 46 47 48 49 50
000 ASUS42 KCHS 170510 RWRCHS REGIONAL WEATHER ROUNDUP NATIONAL WEATHER SERVICE CHARLESTON SC 100 AM EDT WED SEP 17 2014 NOTE: "FAIR" INDICATES FEW OR NO CLOUDS BELOW 12,000 FEET WITH NO SIGNIFICANT WEATHER AND/OR OBSTRUCTIONS TO VISIBILITY. NOT ALL STATIONS ARE QUALITY CONTROLLED BY THE NATIONAL WEATHER SERVICE. USE DATA WITH CAUTION...ESPECIALLY DEWPOINT OBSERVATIONS. SCZ027-030-031-034>040-042>050-170600- ...SOUTH CAROLINA... CITY SKY/WX TMP DP RH WIND PRES REMARKS N CHARLESTON MOCLDY 73 70 90 CALM 29.95S WATERFRONT PRK N/A 79 N/A N/A NE5 N/A FORT JOHNSON NOT AVBL MOUNT PLEASANT FAIR 72 72 100 CALM 29.95S FOG JOHNS ISLAND DRIZZLE 75 75 100 CALM 29.96R PINOPOLIS N/A 75 70 83 SW2 29.88R MONCKS CORNER N/A 70 70 100 CALM 29.96R FOG SUMMERVILLE NOT AVBL BEAUFORT MCAS CLOUDY 75 73 94 CALM 29.94F BEAUFORT ARPT CLOUDY 73 73 100 CALM 29.94S HILTON HEAD IS CLOUDY 75 75 100 NW3 29.95S GEORGETOWN NOT AVBL WALTERBORO MOCLDY 72 N/A N/A CALM 29.96S ORANGEBURG LGT RAIN 72 69 90 CALM 29.95F BARNWELL FAIR 73 70 88 SW5 29.94F AIKEN FAIR 68 68 100 W3 29.98F MANNING FAIR 72 N/A N/A CALM 29.96F KINGSTREE NOT AVBL COLUMBIA PTCLDY 74 68 81 S6 29.94S SUMTER MOCLDY 73 67 84 N5 29.96R FLORENCE MOCLDY 73 70 90 N7 29.98R MYRTLE BEACH MOCLDY 73 70 88 NW5 29.96R N MYRTLE BEACH MOCLDY 73 72 96 N3 29.96R FOG $$ GAZ063-065-086>088-099>101-113>116-118-119-134-136>141-150-170600- ...GEORGIA... CITY SKY/WX TMP DP RH WIND PRES REMARKS SAVANNAH ARPT MOCLDY 71 68 90 W7 29.95S HUNTER AAF MOCLDY 70 70 100 W2 29.93S FORT STEWART MOCLDY 71 69 92 CALM 29.94F STATESBORO NOT AVBL SYLVANIA CLEAR 73 72 97 CALM 29.94F CLAXTON FAIR 72 72 100 CALM 29.95F THOMSON PTCLDY 72 72 100 CALM 30.00S AUGUSTA-BUSH PTCLDY 72 67 84 W5 29.94F AUGUSTA-DANIEL TSTM 71 69 93 NE3 29.97F VSB 1 SWAINSBORO FAIR 72 72 100 CALM 29.98S VIDALIA PTCLDY 70 70 100 CALM 29.97S ALMA MOCLDY 72 70 93 CALM 29.96S WAYCROSS MOCLDY 74 73 97 NE6 29.97R JESUP MOCLDY 73 72 94 CALM 29.96S BRUNSWICK CLOUDY 75 72 88 NE6 29.96S SAINT SIMONS MOCLDY 75 73 93 N3 29.94F $$ SCZ027-028-034-036>038-045-046-048>050-GAZ119-141-170600- ...LAKE AND SUPPLEMENTAL COASTAL OBSERVATIONS... STATION/POSITION TIME TEMP WIND PRES WAVE SWELL AIR SEA DIR/SP/G HT/PER HT/PER/DIR (UTC) (F) (DEG/KT/KT) (MB) (FT/S) (FT/S/D) UPR LAKE MARION NOT AVBL WINYAH BAY 0400 72 270/ 3 1014.0S LAKE MURRAY 0400 76 210/ 7/ 9 1013.5F ACE BASIN NERRS 0400 73 CALM 1014.0S FORT PULASKI 0500 73 290/ 4/ 6 1014.0S SAPELO ISLAND 0400 73 60/ 9 1015.0S $$ ANZ835-935-AMZ111-154-330-350-352-354-374-450-454-472-170600- ...C-MAN AND BUOY OBSERVATIONS... STATION/POSITION TIME TEMP WIND PRES WAVE SWELL AIR SEA DIR/SP/G HT/PER HT/PER/DIR (UTC) (F) (DEG/KT/KT) (MB) (FT/S) (FT/S/D) FOLLY BEACH CMAN 0400 77 60/ 6/ 7 1014.6R BUOY 41004 0500 80 83 210/ 4/ 6 1013.5F 2/12 2/12 BUOY 41008 0500 74 84 150/ 2/ 4 1013.6F 2/ 7 2/ 90/ 7 5E ST. MARYS GA 0500 83 N/A 2/13 2/100/13 FRYING PAN BUOY NOT AVBL BUOY 41025 0500 75 350/ 6/ 10 1014.2F 2/12 2/110/12 CAPE LOOKOUT NC 0400 78 200/ 4/ 4 1014.1F BUOY 41002 0435 79 82 180/ 8/ 10 1014.3F 4/14 5/100/14 BUOY 41010 0500 82 85 230/ 8/ 16 1015.2R 2/ 7 2/ 70/ 7 BUOY 41012 NOT AVBL ST AUGUSTINE FL 0500 74 270/ 4/ 6 1014.8F CAPERS NEARSHORE 0400 77 180/ 6/ 8 N/A FRIPP NEARSHORE NOT AVBL $$

USA.gov is the U.S. government's official web portal to all federal, state and local government web resources and services.